{"data":{"norad_id":45245,"epoch":"2026-05-24T23:15:15.553728Z","epoch_age_seconds":67811,"freshness":"FRESH","line1":"1 45245U 20013A   26144.96893002 -.00000327  00000+0  00000+0 0  9991","line2":"2 45245   5.3930 356.6636 0003050  51.5378 319.1830  1.00272046 23006","mean_motion":1.00272046,"eccentricity":0.000305,"inclination_deg":5.393,"raan_deg":356.6636,"arg_perigee_deg":51.5378,"mean_anomaly_deg":319.183,"bstar":0,"rev_number":2300,"period_min":1436.0931659857,"perigee_km":35773.661572643,"apogee_km":35799.382014507,"semimajor_km":42164.658793575,"source":"CELESTRAK","updated_at":"2026-05-25T13:38:14.092960Z"}}